sat.trackr.live / text

‹ back to catalog

ONEWEB-0692

NORAD 61600 · 2024-188G

PAYLOAD ACTIVE UNKNOWN

§ Identity

Operator
Country
UK
Launch date
2024-10-20
Launch site
AFWTR
Launch vehicle
Mass (kg)
RCS (m²)

Purposes: comms

External: N2YO · Heavens-Above · Gunter

§ Orbital elements

Epoch: 2026-09-19T12:27:24.295680Z

Period
109.81 min
Inclination
87.8959°
Eccentricity
0.0001047
Mean motion
13.11414261 rev/d
Perigee alt
1,216.9 km
Apogee alt
1,218.5 km
Semi-major
7,595.8 km
B*
1.6101e-4
RAAN
2.3295°
Arg perigee
95.6267°
Mean anomaly
264.4980°
Rev number
9,683

§ Raw data

ONEWEB-06921 61600U 24188G   26262.51903120  .00000070  00000+0  16101-3 0  99932 61600  87.8959   2.3295 0001047  95.6267 264.4980 13.11414261 96832

JSON: /api/v1/satellites/61600 · /tle

For live sub-satellite position, see the globe view (requires WebGL).

§ Visibility from observer

Set your observer location to see the next 7 days of passes ≥ 10°. The values pass through the URL so the page stays shareable.

No JS? Fill the form by hand. The geolocation button needs JavaScript.